Location: Baia Mare
(47.6567°N, 23.5850°E)
Time: 13:55:31
(UTC+03:00)

ISS - Pass Details

Date: 14 July 2019
Orbit: 409 x 418 km, 51.6° (Epoch: 21 July)

Event Time Altitude Azimuth Distance (km) Brightness Sun altitude
Exits shadow 01:03:19 42° 75° (ENE) 605 -3.0 -20.3°
Drops below altitude 10° 01:05:38 10° 68° (ENE) 1,482 -0.8 -20.3°
Sets 01:07:44 0° 67° (ENE) 2,345 0.3 -20.4°
